Starlink 32595

operational
NORAD ID: 62037 Int'l Des: 2024-216 Owner: SPXS Country: US Constellation: starlink
LEOCIRCULAR

About Starlink 32595

Description loading...

Live Position

Loading 3D Globe...

Upcoming Passes

Altitude History

Altitude vs Time

uPlot chart will show altitude changes over time

Two-Line Element Set

1 62037U 24216F 25351.11420651 .00020651 00000-0 75774-3 0 9996
2 62037 43.0023 9.8611 0001133 261.9952 98.0771 15.27585450 61178
Epoch: Dec 17, 2025 • Age: 12 hours

Current Status

Altitude 482.4 km
Velocity 7.63 km/s
Sub-Earth Point 3.07°N, 120.01°W
Launch Date Nov 21, 2024
Age 1 years
Type internet

Technical Details

Classification Payload
Mass 730.00 kg
Dry Mass 700.00 kg
Total Mass 730.00 kg
Length 0.30 m
Diameter 4.10 m
Span 29.00 m
Shape Box + pan
Manufacturer SPXS
Bus Type Starlink V2M
Phase Status In Orbit
Owner/State SPXS/US

Large Constellations

Loading constellations...